Terminal Aerodrome Forecast
Issued by NWS Paducah, KY

Home | Current Version | Previous Version | Text Only | Print | Product List | Glossary On
Versions: 1 2 3 4 5 6 7 8 9 10 11 12 13 14 15 16 17 18
992
FTUS43 KPAH 240854 AAA
TAFEVV
TAF AMD
KEVV 240854Z 2409/2506 36005KT P6SM VCSH OVC020
     FM241500 35010KT P6SM OVC010
     FM242300 34005KT P6SM OVC020=

USA.gov is the U.S. government's official web portal to all federal, state and local government web resources and services.